Regional Weather Roundup
Issued by NWS Newport/Morehead, NC

Current Version | Previous Version | Text Only | Print | Product List | Glossary On
Versions: 1 2 3 4 5 6 7 8 9 10 11 12 13 14 15 16 17 18 19 20 21 22 23 24 25 26 27 28 29 30 31 32 33 34 35 36 37 38 39 40 41 42 43 44 45 46 47 48 49 50
000
ASUS42 KMHX 251125
RWRMHX
WEATHER ROUNDUP FOR EASTERN NORTH CAROLINA
NATIONAL WEATHER SERVICE NEWPORT/MOREHEAD CITY NC
700 AM EDT TUE APR 25 2017

NOTE: "FAIR" INDICATES FEW OR NO CLOUDS BELOW 12,000 FEET
WITH NO SIGNIFICANT WEATHER AND/OR OBSTRUCTIONS TO VISIBILITY

NCZ015>017-031-032-045>047-102-103-251200-
NORTH COAST

CITY           SKY/WX    TMP DP  RH WIND       PRES   REMARKS
EDENTON        DRIZZLE   65  61  87 W15G33    29.52R
ELIZABETH CITY LGT RAIN  66  66 100 SE18G29   29.56R FOG
KITTY HAWK     CLOUDY    65  65 100 SW7       29.55R
MANTEO         CLOUDY    65  61  85 SW15      29.56R

$$

NCZ045>047-081-094-103-104-251200-
CENTRAL COAST

CITY           SKY/WX    TMP DP  RH WIND       PRES   REMARKS
FRISCO         CLOUDY    68  61  78 SW10      29.59R HAZE

$$

NCZ095-097-098-100-101-251200-
SOUTHERN COAST

CITY           SKY/WX    TMP DP  RH WIND       PRES   REMARKS
BEAUFORT       CLEAR     64  63  96 SW5       29.58R
CEDAR ISLAND   NOT AVBL
JACKSONVILLE   FOG       64  64 100 CALM      29.58R VSB 1
PINEY ISLAND   MOSUNNY  N/A N/A N/A S7        29.57R
WILMINGTON     CLOUDY    63  63 100 NW3       29.58R FOG


$$

NCZ011>013-027>030-043-044-078>080-089-090>093-098-251200-
COASTAL PLAIN

CITY           SKY/WX    TMP DP  RH WIND       PRES   REMARKS
AHOSKIE        HVY RAIN  61  60  98 N13G18    29.53F
CLINTON        FOG       62  62 100 CALM      29.59R VSB 1/4
ELIZABETHTOWN  CLOUDY    61  61 100 CALM      29.60R FOG
GOLDSBORO      CLOUDY    61  61 100 CALM      29.57S
GREENVILLE     RAIN      61  61 100 NW6       29.59S
HAVELOCK       NOT AVBL
KENANSVILLE    CLOUDY    63  63 100 CALM      29.58R FOG
KINSTON        LGT RAIN  61  61 100 NW6       29.57S
NEW BERN       CLOUDY    62  62 100 W7        29.58R
RICHLANDS      CLOUDY    63  63 100 NW3       29.58R
ROCKY MOUNT    TSTM      60  60 100 NW10      29.59F FOG
WASHINGTON     LGT RAIN  60  59  98 SW9       29.54R
WHITEVILLE     FOG       61  60  97 W5        29.59R VSB 3/4

$$

AMZ130-135-150-152-154-156-158-170-250-252-270-ANZ085-086-088-633-658-670-251200-
MARINE OBSERVATIONS

STATION/POSITION TIME  TEMP    WIND        PRES    WAVE   SWELL
                       AIR SEA DIR/SP/G            HT/PER HT/PER
                 (UTC) (F)     (DEG/KT/KT) (MB)    (FT/S) (FT/S)
CHESAPEAKE LIGHT NOT AVBL
64 E VA BEACH    1050   62 54  110/ 21/ 25 1003.5   17/11  15/11
DUCK             1100   64 60  130/ 22/ 27 1000.5
2 E DUCK         1100      58                N/A    15/11  10/11
OREGON INLET     1100   65 62  200/  8/ 13 1000.7
13E OREGON INLT  1048      57                N/A    14/11  13/11
HATTERAS CG      1100   68 67  200/  8/ 13 1002.0
DIAMOND BUOY     1050   73 77  200/ 17/ 21 1001.8   13/10  10/10
CAPE LOOKOUT     1100   66     240/  4/  4 1001.3
BEAUFORT LAB     1100   64 65  250/  2/  4 1000.8
30 SE NEW RVR IN 1108   70     250/ 12/ 17 1001.6
30 SE NEW RVR IN 1113      71                N/A     8/11   5/11
27 SE WRIGHTSVLE 1108   70 72  240/ 14/ 19 1001.4
5 SE WRIGHTSVLE  1108   67 69  260/  8/ 14 1001.3
225 S CAPE HAT   1050   71 75  180/ 12/ 14 1004.8    9/10   8/10
41 SE CHARLESTON 1110   64 72  260/ 16/ 21 1003.5

$$




USA.gov is the U.S. government's official web portal to all federal, state and local government web resources and services.